Time,TemperatureF,DewpointF,PressureIn,WindDirection,WindDirectionDegrees,WindSpeedMPH,WindSpeedGustMPH,Humidity,HourlyPrecipIn,Conditions,Clouds,dailyrainin,SolarRadiationWatts/m^2,SoftwareType,DateUTC
2013-02-18 00:02:00,54.0,43.0,-100.00,SSE,160,5.0,9.0,67,0.00,,,0.00,0.000000,,2013-02-18 06:02:00,
2013-02-18 01:22:00,55.0,47.0,-100.00,SSE,164,6.0,12.0,74,-99.99,,,0.00,0.000000,,2013-02-18 07:22:00,
2013-02-18 01:32:00,55.0,47.0,-100.00,SSE,164,6.0,12.0,74,-99.99,,,0.00,0.000000,,2013-02-18 07:32:00,
2013-02-18 01:42:00,55.0,47.0,-100.00,SSE,164,6.0,12.0,74,-99.99,,,0.00,0.000000,,2013-02-18 07:42:00,
2013-02-18 01:52:00,55.0,47.0,-100.00,SSE,164,6.0,12.0,74,-99.99,,,0.00,0.000000,,2013-02-18 07:52:00,
2013-02-18 02:01:00,55.0,47.0,-100.00,SSE,164,6.0,12.0,74,-99.99,,,0.00,0.000000,,2013-02-18 08:01:00,
2013-02-18 02:33:00,56.0,47.0,-100.00,SSE,151,5.0,11.0,73,0.00,,,0.00,0.000000,,2013-02-18 08:33:00,
2013-02-18 02:42:00,56.0,47.0,-100.00,SSE,151,5.0,11.0,73,0.00,,,0.00,0.000000,,2013-02-18 08:42:00,
2013-02-18 02:52:00,56.0,47.0,-100.00,SSE,151,5.0,11.0,73,0.00,,,0.00,0.000000,,2013-02-18 08:52:00,
2013-02-18 03:02:00,56.0,47.0,-100.00,SSE,151,5.0,11.0,73,0.00,,,0.00,0.000000,,2013-02-18 09:02:00,
2013-02-18 03:32:00,58.0,49.0,-100.00,SSE,161,7.0,14.0,73,0.00,,,0.00,0.000000,,2013-02-18 09:32:00,
2013-02-18 03:42:00,58.0,49.0,-100.00,SSE,161,7.0,14.0,73,0.00,,,0.00,0.000000,,2013-02-18 09:42:00,
2013-02-18 03:52:00,58.0,49.0,-100.00,SSE,161,7.0,14.0,73,0.00,,,0.00,0.000000,,2013-02-18 09:52:00,
2013-02-18 04:01:00,58.0,49.0,-100.00,SSE,161,7.0,14.0,73,0.00,,,0.00,0.000000,,2013-02-18 10:01:00,
2013-02-18 04:32:00,58.0,50.0,-100.00,SSE,160,6.0,14.0,74,0.00,,,0.00,0.000000,,2013-02-18 10:32:00,
2013-02-18 04:42:00,58.0,50.0,-100.00,SSE,160,6.0,14.0,74,0.00,,,0.00,0.000000,,2013-02-18 10:42:00,
2013-02-18 04:53:00,58.0,50.0,-100.00,SSE,160,6.0,14.0,74,0.00,,,0.00,0.000000,,2013-02-18 10:53:00,
2013-02-18 05:01:00,58.0,50.0,-100.00,SSE,160,6.0,14.0,74,0.00,,,0.00,0.000000,,2013-02-18 11:01:00,
2013-02-18 05:22:00,58.0,50.0,-100.00,SSE,158,5.0,12.0,76,0.00,,,0.00,0.000000,,2013-02-18 11:22:00,
2013-02-18 05:33:00,58.0,50.0,-100.00,SSE,158,5.0,12.0,76,0.00,,,0.00,0.000000,,2013-02-18 11:33:00,
2013-02-18 05:43:00,58.0,50.0,-100.00,SSE,158,5.0,12.0,76,0.00,,,0.00,0.000000,,2013-02-18 11:43:00,
2013-02-18 05:53:00,58.0,50.0,-100.00,SSE,158,5.0,12.0,76,0.00,,,0.00,0.000000,,2013-02-18 11:53:00,
2013-02-18 06:02:00,58.0,50.0,-100.00,SSE,158,5.0,12.0,76,0.00,,,0.00,0.000000,,2013-02-18 12:02:00,
2013-02-18 06:32:00,58.0,51.0,-100.00,SSE,151,6.0,12.0,77,0.00,,,0.00,0.000000,,2013-02-18 12:32:00,
2013-02-18 06:42:00,58.0,51.0,-100.00,SSE,151,6.0,12.0,77,0.00,,,0.00,0.000000,,2013-02-18 12:42:00,
2013-02-18 06:53:00,58.0,51.0,-100.00,SSE,151,6.0,12.0,77,0.00,,,0.00,0.000000,,2013-02-18 12:53:00,
2013-02-18 07:02:00,58.0,51.0,-100.00,SSE,151,6.0,12.0,77,0.00,,,0.00,0.000000,,2013-02-18 13:02:00,
2013-02-18 07:23:00,59.0,52.0,-100.00,SSE,157,6.0,13.0,79,0.00,,,0.00,0.000000,,2013-02-18 13:23:00,
2013-02-18 07:32:00,59.0,52.0,-100.00,SSE,157,6.0,13.0,79,0.00,,,0.00,0.000000,,2013-02-18 13:32:00,
2013-02-18 07:53:00,59.0,52.0,-100.00,SSE,157,6.0,13.0,79,0.00,,,0.00,0.000000,,2013-02-18 13:53:00,
2013-02-18 08:02:00,59.0,52.0,-100.00,SSE,157,6.0,13.0,79,0.00,,,0.00,0.000000,,2013-02-18 14:02:00,
2013-02-18 08:34:00,60.0,53.0,-100.00,SSE,165,6.0,15.0,78,0.00,,,0.00,27.000000,,2013-02-18 14:34:00,
2013-02-18 08:42:00,60.0,53.0,-100.00,SSE,165,6.0,15.0,78,0.00,,,0.00,27.000000,,2013-02-18 14:42:00,
2013-02-18 08:53:00,60.0,53.0,-100.00,SSE,165,6.0,15.0,78,0.00,,,0.00,27.000000,,2013-02-18 14:53:00,
2013-02-18 09:02:00,60.0,53.0,-100.00,SSE,165,6.0,15.0,78,0.00,,,0.00,27.000000,,2013-02-18 15:02:00,
2013-02-18 09:32:00,62.0,54.0,-100.00,SSE,162,7.0,13.0,76,0.00,,,0.00,129.000000,,2013-02-18 15:32:00,
2013-02-18 09:42:00,62.0,54.0,-100.00,SSE,162,7.0,13.0,76,0.00,,,0.00,129.000000,,2013-02-18 15:42:00,
2013-02-18 09:53:00,62.0,54.0,-100.00,SSE,162,7.0,13.0,76,0.00,,,0.00,129.000000,,2013-02-18 15:53:00,
2013-02-18 10:02:00,62.0,54.0,-100.00,SSE,162,7.0,13.0,76,0.00,,,0.00,129.000000,,2013-02-18 16:02:00,
2013-02-18 10:33:00,66.0,57.0,-100.00,South,179,10.0,19.0,72,0.00,,,0.00,257.000000,,2013-02-18 16:33:00,
2013-02-18 10:43:00,66.0,57.0,-100.00,South,179,10.0,19.0,72,0.00,,,0.00,257.000000,,2013-02-18 16:43:00,
2013-02-18 10:53:00,66.0,57.0,-100.00,South,179,10.0,19.0,72,0.00,,,0.00,257.000000,,2013-02-18 16:53:00,
2013-02-18 11:33:00,68.0,57.0,-100.00,SSW,192,8.0,20.0,68,0.00,,,0.00,282.000000,,2013-02-18 17:33:00,
2013-02-18 11:43:00,68.0,57.0,-100.00,SSW,192,8.0,20.0,68,0.00,,,0.00,282.000000,,2013-02-18 17:43:00,
2013-02-18 11:53:00,68.0,57.0,-100.00,SSW,192,8.0,20.0,68,0.00,,,0.00,282.000000,,2013-02-18 17:53:00,
2013-02-18 12:02:00,68.0,57.0,-100.00,SSW,192,8.0,20.0,68,0.00,,,0.00,282.000000,,2013-02-18 18:02:00,
2013-02-18 12:33:00,70.0,58.0,-100.00,South,175,9.0,20.0,65,0.00,,,0.00,236.000000,,2013-02-18 18:33:00,
2013-02-18 12:43:00,70.0,58.0,-100.00,South,175,9.0,20.0,65,0.00,,,0.00,236.000000,,2013-02-18 18:43:00,
2013-02-18 12:53:00,70.0,58.0,-100.00,South,175,9.0,20.0,65,0.00,,,0.00,236.000000,,2013-02-18 18:53:00,
2013-02-18 13:02:00,70.0,58.0,-100.00,South,175,9.0,20.0,65,0.00,,,0.00,236.000000,,2013-02-18 19:02:00,
2013-02-18 13:34:00,69.0,57.0,-100.00,South,183,6.0,16.0,66,0.00,,,0.00,110.000000,,2013-02-18 19:34:00,
2013-02-18 13:43:00,69.0,57.0,-100.00,South,183,6.0,16.0,66,0.00,,,0.00,110.000000,,2013-02-18 19:43:00,
2013-02-18 13:53:00,69.0,57.0,-100.00,South,183,6.0,16.0,66,0.00,,,0.00,110.000000,,2013-02-18 19:53:00,
2013-02-18 14:02:00,69.0,57.0,-100.00,South,183,6.0,16.0,66,0.00,,,0.00,110.000000,,2013-02-18 20:02:00,
2013-02-18 15:33:00,69.0,61.0,-100.00,South,175,9.0,18.0,77,-99.99,,,0.01,474.000000,,2013-02-18 21:33:00,
2013-02-18 15:43:00,69.0,61.0,-100.00,South,175,9.0,18.0,77,-99.99,,,0.01,474.000000,,2013-02-18 21:43:00,
2013-02-18 15:53:00,69.0,61.0,-100.00,South,175,9.0,18.0,77,-99.99,,,0.01,474.000000,,2013-02-18 21:53:00,
2013-02-18 16:02:00,69.0,61.0,-100.00,South,175,9.0,18.0,77,-99.99,,,0.01,474.000000,,2013-02-18 22:02:00,
2013-02-18 16:33:00,67.0,61.0,-100.00,South,187,3.0,18.0,82,0.02,,,0.03,157.000000,,2013-02-18 22:33:00,
2013-02-18 16:43:00,67.0,61.0,-100.00,South,187,3.0,18.0,82,0.02,,,0.03,157.000000,,2013-02-18 22:43:00,
2013-02-18 16:53:00,67.0,61.0,-100.00,South,187,3.0,18.0,82,0.02,,,0.03,157.000000,,2013-02-18 22:53:00,
2013-02-18 17:02:00,67.0,61.0,-100.00,South,187,3.0,18.0,82,0.02,,,0.03,157.000000,,2013-02-18 23:02:00,
2013-02-18 17:34:00,67.0,63.0,-100.00,South,171,5.0,9.0,86,0.00,,,0.03,175.000000,,2013-02-18 23:34:00,
2013-02-18 17:43:00,67.0,63.0,-100.00,South,171,5.0,9.0,86,0.00,,,0.03,175.000000,,2013-02-18 23:43:00,
2013-02-18 17:53:00,67.0,63.0,-100.00,South,171,5.0,9.0,86,0.00,,,0.03,175.000000,,2013-02-18 23:53:00,
2013-02-18 18:02:00,67.0,63.0,-100.00,South,171,5.0,9.0,86,0.00,,,0.03,175.000000,,2013-02-19 00:02:00,
2013-02-18 18:03:00,66.0,62.0,-100.00,South,190,5.0,9.0,86,0.00,,,0.03,62.000000,,2013-02-19 00:03:00,
2013-02-18 18:35:00,66.0,62.0,-100.00,South,190,5.0,9.0,86,0.00,,,0.03,62.000000,,2013-02-19 00:35:00,
2013-02-18 18:44:00,66.0,62.0,-100.00,South,190,5.0,9.0,86,0.00,,,0.03,62.000000,,2013-02-19 00:44:00,
2013-02-18 18:54:00,66.0,62.0,-100.00,South,190,5.0,9.0,86,0.00,,,0.03,62.000000,,2013-02-19 00:54:00,
2013-02-18 19:03:00,64.0,61.0,-100.00,South,182,4.0,10.0,91,0.00,,,0.03,1.000000,,2013-02-19 01:03:00,
2013-02-18 19:24:00,64.0,61.0,-100.00,South,182,4.0,10.0,91,0.00,,,0.03,1.000000,,2013-02-19 01:24:00,
2013-02-18 19:35:00,64.0,61.0,-100.00,South,182,4.0,10.0,91,0.00,,,0.03,1.000000,,2013-02-19 01:35:00,
2013-02-18 19:45:00,64.0,61.0,-100.00,South,182,4.0,10.0,91,0.00,,,0.03,1.000000,,2013-02-19 01:45:00,
2013-02-18 19:56:00,64.0,61.0,-100.00,South,182,4.0,10.0,91,0.00,,,0.03,1.000000,,2013-02-19 01:56:00,
2013-02-18 20:03:00,57.0,55.0,-100.00,NW,315,16.0,30.0,94,0.28,,,0.31,0.000000,,2013-02-19 02:03:00,
2013-02-18 20:35:00,57.0,55.0,-100.00,NW,315,16.0,30.0,94,0.28,,,0.31,0.000000,,2013-02-19 02:35:00,
2013-02-18 21:25:00,54.0,52.0,-100.00,NW,313,2.0,6.0,94,0.01,,,0.32,0.000000,,2013-02-19 03:25:00,
2013-02-18 21:35:00,54.0,52.0,-100.00,NW,313,2.0,6.0,94,0.01,,,0.32,0.000000,,2013-02-19 03:35:00,
2013-02-18 21:45:00,54.0,52.0,-100.00,NW,313,2.0,6.0,94,0.01,,,0.32,0.000000,,2013-02-19 03:45:00,
2013-02-18 21:55:00,54.0,52.0,-100.00,NW,313,2.0,6.0,94,0.01,,,0.32,0.000000,,2013-02-19 03:55:00,
2013-02-18 22:02:00,54.0,52.0,-100.00,NW,313,2.0,6.0,94,0.01,,,0.32,0.000000,,2013-02-19 04:02:00,
2013-02-18 22:24:00,51.0,48.0,-100.00,WSW,243,2.0,12.0,88,0.00,,,0.32,0.000000,,2013-02-19 04:24:00,
2013-02-18 22:34:00,51.0,48.0,-100.00,WSW,243,2.0,12.0,88,0.00,,,0.32,0.000000,,2013-02-19 04:34:00,
2013-02-18 22:44:00,51.0,48.0,-100.00,WSW,243,2.0,12.0,88,0.00,,,0.32,0.000000,,2013-02-19 04:44:00,
2013-02-18 22:55:00,51.0,48.0,-100.00,WSW,243,2.0,12.0,88,0.00,,,0.32,0.000000,,2013-02-19 04:55:00,
2013-02-18 23:02:00,51.0,48.0,-100.00,WSW,243,2.0,12.0,88,0.00,,,0.32,0.000000,,2013-02-19 05:02:00,
2013-02-18 23:32:00,51.0,45.0,-100.00,WNW,294,2.0,5.0,81,0.00,,,0.32,0.000000,,2013-02-19 05:32:00,
2013-02-18 23:43:00,51.0,45.0,-100.00,WNW,294,2.0,5.0,81,0.00,,,0.32,0.000000,,2013-02-19 05:43:00,
2013-02-18 23:52:00,51.0,45.0,-100.00,WNW,294,2.0,5.0,81,0.00,,,0.32,0.000000,,2013-02-19 05:52:00,